COSMOS 1275 DEB

Satellite information

Favourite Embed

Satellite Type and Status

DEBRISIN ORBIT

Key statistics

Satellite COSMOS 1275 DEB at a glance.

Uptime

16212

Days in orbit

Revolutions

≈ 14.0

Per day

Orbit

LEO

Low Earth Orbit

Inclination

82.8

Latest

Satellite identification and parameters

Extended collection of information and parameters for COSMOS 1275 DEB.

Object identification

Identified? True

Debris? True

Object name: COSMOS 1275 DEB

International designator: 1981-053KU

Object number (NORAD): 17625

Object ID (CCSDS): 17625

Country: COMMONWEALTH OF INDEPENDENT STATES (CIS)

Current information (Y/N): Y

RCS size: SMALL

Orbital parameters

Period: 102.738 minutes

Inclination: 82.7871 deg

SMA: 7266.307 km

Apoapsis: 918.283 km

Periapsis: 858.061 km

RAAN: 320.7334 deg

Eccentricy: 0.0041439

Argument of periapsis: 225.0892 deg

Mean anomaly: 134.6914 deg

Mean motion: 14.01625969 rev/day

Mean motion (dot): 0.00002639 rev/day2

B* drag term: 0.0017201 1/REarth

Two-line elements (TLE)

Creation date: Oct. 22, 2025, 12:06 a.m.

Reference frame: TEME

Reference center: EARTH

Epoch: Oct. 21, 2025, 12:17 p.m. UTC

TLE line 0: 0 COSMOS 1275 DEB

TLE line 1: 1 17625U 81053KU 25294.51204575 .00002639 00000-0 17201-2 0 9992

TLE line 2: 2 17625 82.7871 320.7334 0041439 225.0892 134.6914 14.01625969735115

Live tracking on map

Real-time ground track for satellite COSMOS 1275 DEB.

In-orbit conjunctions

A list of the most updated potential collisions computed for object COSMOS 1275 DEB.

Target Orbit TCA Probability of collision Miss distance Type
SL-12 R/B(AUX MOTOR) MEO 2025-01-01 05:05:44 0.0001214721 690.0 (m) ROCKET BODY
COSMOS 1275 DEB LEO 2024-11-15 05:29:51 0.0003547398 175.0 (m) DEBRIS
COSMOS 1275 DEB LEO 2024-11-13 06:21:00 0.0005410868 740.0 (m) DEBRIS
FENGYUN 1C DEB SSO 2024-08-19 13:29:45 0.0001755462 48.0 (m) DEBRIS
GGSE 3 LEO 2024-06-04 21:22:21 0.0001286014 192.0 (m) PAYLOAD

Associated space launch

Navigation satellite providing location information for the Tsiklon-B navigation system

COSMOS 1275 DEB was lifted into orbit during the mission ‘Kosmos-3M | Parus 27’, on board a Kosmos-3M space rocket.

The launch took place on June 4, 1981, 3:41 p.m. from 132/2.

For more information about the launch, click the button.

Launch to space Kosmos-3M | Parus 27
Kosmos-3M | Parus 27

Agency: N/A

Status: Launch Successful

Launch date: June 4, 1981, 3:41 p.m. UTC

Rocket: Kosmos-3M

Launch pad: 132/2

Location: Plesetsk Cosmodrome, Russian Federation

...

Latest news about this satellite

There are no fresh news available about this satellite. Check back as we update our databases every day.


Newsletter sign-up

Weekly statistics, charts and insights to help you stay on top of the space industry.